Regional Weather Roundup
Issued by NWS

Home | Current Version | Previous Version | Text Only | Print | Product List | Glossary Off
Versions: 1 2 3 4 5 6 7 8 9 10 11 12 13 14 15 16 17 18 19 20 21 22 23 24 25 26 27 28 29 30 31 32 33 34 35 36 37 38 39 40 41 42 43 44 45 46 47 48 49 50

000
ASUS43 KOAX 231410
RWRNE

WEATHER ROUNDUP FOR NEBRASKA
NATIONAL WEATHER SERVICE OMAHA NE
800 AM CST SUN NOV 23 2014

NOTES: SATELLITE DATA IS BEING USED TO AUGMENT CLOUD COVER ABOVE
       12000 FEET.
       "FAIR" INDICATES FEW OR NO CLOUDS BELOW 12,000 FEET WITH NO
       SIGNIFICANT WEATHER AND/OR OBSTRUCTIONS TO VISIBILITY.

  * THESE STATIONS DO NOT REPORT WEATHER SUCH AS RAIN...SNOW OR FOG.

NEZ001>004-019>022-054>056-231500-
NEBRASKA PANHANDLE

CITY           SKY/WX    TMP DP  RH WIND       PRES   REMARKS
SCOTTSBLUFF    MOCLDY    26  19  74 NW8       29.74R WCI  18
ALLIANCE       MOCLDY    33  17  51 NW22      29.68R WCI  21
CHADRON        CLEAR     29  21  72 W10       29.74R WCI  20
KIMBALL        MOCLDY    31  18  57 N15       29.72R WCI  20
SIDNEY         CLOUDY    33  17  51 NW13      29.71R WCI  24
$$

NEZ057>060-069>072-079>082-231500-
SOUTHWEST NEBRASKA

CITY           SKY/WX    TMP DP  RH WIND       PRES   REMARKS
NORTH PLATTE   CLOUDY    42  23  46 N14G28    29.64R
IMPERIAL       CLOUDY    41  22  46 N21       29.67R
LEXINGTON      CLOUDY    45  32  60 N22G35    29.61R
MCCOOK         CLOUDY    45  26  47 N24G31    29.62R
OGALLALA       CLOUDY    39  24  54 NW9G17    29.67R WCI  33
$$

NEZ005>010-023>029-035>040-094-231500-
NORTH CENTRAL NEBRASKA

CITY           SKY/WX    TMP DP  RH WIND       PRES   REMARKS
VALENTINE      CLOUDY    38  27  64 NW14G24   29.64R WCI  30
AINSWORTH      CLOUDY    39  28  63 NW18G25   29.63R WCI  30
BROKEN BOW     CLOUDY    43  31  62 N20G30    29.61R
O`NEILL        CLOUDY    41  37  83 NW15      29.59R
ORD            CLOUDY    43  33  68 N18G26    29.58R
THEDFORD       CLOUDY    41  25  53 N23G31    29.65R
$$

NEZ041-046>049-061>064-073>077-083>087-231500-
SOUTH CENTRAL NEBRASKA

CITY           SKY/WX    TMP DP  RH WIND       PRES   REMARKS
AURORA         CLOUDY    44  38  78 N17G25    29.54R
HASTINGS       MOCLDY    44  35  70 N23       29.53R
HEBRON         CLOUDY    51  48  89 S6        29.49S
HOLDREGE       CLOUDY    44  33  64 N22G30    29.57R
KEARNEY *      CLOUDY    43  34  70 NW20G26   29.59R
YORK           CLOUDY    48  45  87 N14G20    29.52R
$$

NEZ011>018-030>034-042>045-231500-
NORTHEAST NEBRASKA

CITY           SKY/WX    TMP DP  RH WIND       PRES   REMARKS
NORFOLK        CLOUDY    44  37  76 NW18G33   29.51R
ALBION         CLOUDY    44  35  72 N14G26    29.54R
BLAIR          CLOUDY    52  50  92 S8        29.48R
COLUMBUS *     CLOUDY    45  37  76 NW10      29.54R
FREMONT        CLOUDY    53  49  87 S6        29.48R
TEKAMAH        CLOUDY    50  47  89 S6        29.48R
WAYNE          CLOUDY    44  36  74 N17G25    29.50R
$$

NEZ050>053-065>068-078-088>093-231500-
SOUTHEAST NEBRASKA

CITY           SKY/WX    TMP DP  RH WIND       PRES   REMARKS
LINCOLN        CLOUDY    53  49  86 S7        29.50R
OMAHA EPPLEY   CLOUDY    52  51  97 S3        29.49R
BEATRICE       CLOUDY    51  51  99 SW5       29.49S FOG
FALLS CITY     CLOUDY    53  52  96 SE6       29.49F FOG
NEBRASKA CITY  DRIZZLE   52  52  99 S6        29.49S
PLATTSMOUTH    DRIZZLE   52  50  93 S5        29.49S
$$

NEZ044-045-051>053-067-231500-
OMAHA AREA

CITY           SKY/WX    TMP DP  RH WIND       PRES   REMARKS
OMAHA EPPLEY   CLOUDY    52  51  97 S3        29.49R
BLAIR          CLOUDY    52  50  92 S8        29.48R
FREMONT        CLOUDY    53  49  87 S6        29.48R
MILLARD        CLOUDY    54  51  90 CALM      29.49R
OFFUTT AFB     CLOUDY    52  52 100 S6        29.48R
PLATTSMOUTH    DRIZZLE   52  50  93 S5        29.49S
WAHOO          CLOUDY    51  47  87 S5        29.48S
$$



USA.gov is the U.S. government's official web portal to all federal, state and local government web resources and services.